map of XCR home
Great Circle Mapper logo
XCR - Airport
Location
City:  Chalons-sur-Marne, Champagne-Ardenne, France
Name:Vatry International Airport
ICAO:LFOK
IATA:XCR

Details
Type:Airport (Aerodrome, Airfield)
Use:Public/Civil, International (customs port of entry)
Latitude:4846'24"N (48.773333)
Longitude:412'22"E (4.206111)
Elevation:587 ft (179 m)
Variation:0.95E (WMM2015 magnetic declination)
0.13 annual change
Runways:1
Longest:12664 × 148 ft (3860 × 45 m), paved

Time
Time Zone:UTC+1 (DST+2)
Local Time:

Weather
METAR:LFOK 242300Z AUTO 34004KT 9999 // NSC 18/17 Q1017
TAF:LFOK 242300Z 2500/2524 VRB02KT CAVOK
TEMPO 2501/2512 3000 SHRA BKN007 BKN050CB PROB30
TEMPO 2501/2510 TSRA PROB30
TEMPO 2514/2520 3000 SHRA BKN030CB

Related Locations
Nearby:
Farthest:CHT: 12086 mi / 19450 km
Waitangi [Tuuta], Chatham Islands, NZ

Find:

   beyond  
but within

Other Information
Maps:
NOTAMs:
Links:
Sources:

  
flag of France
flag of Champagne-Ardenne
  

Sectional Chart

Flight Planning
at skyvector.com

Satellite Image

Google Maps Satellite view

 

Copyright © 2004-2016 Karl L. Swartz. All rights reserved.
The Great Circle Mapper name and logo are trademarks of the Great Circle Mapper.
All other trademarks mentioned herein belong to their respective owners.
Please see credits for attibutions and further copyright information.

  Follow gcmap on Facebook Follow gcmap on Twitter Follow gcmap on Google+ GCmap on LinkedIn

hCard Microformat

Geo Microformat